date,time,SUV Intensity [MED/Hr],UV Index,Daily total [MED],Since Last [MED]
22/11/2022,00:02:57,0.000,0.0,0.0,0.0
22/11/2022,00:03:56,0.000,0.0,0.0,0.0
22/11/2022,00:04:56,0.001,0.0,0.0,0.0
22/11/2022,00:05:57,0.000,0.0,0.0,0.0
22/11/2022,00:06:56,0.000,0.0,0.0,0.0
22/11/2022,00:07:56,0.000,0.0,0.0,0.0
22/11/2022,00:08:56,0.000,0.0,0.0,0.0
22/11/2022,00:09:57,0.000,0.0,0.0,0.0
22/11/2022,00:10:57,0.000,0.0,0.0,0.0
22/11/2022,00:11:56,0.000,0.0,0.0,0.0
22/11/2022,00:12:57,0.000,0.0,0.0,0.0
22/11/2022,00:13:57,0.000,0.0,0.0,0.0
22/11/2022,00:14:56,0.000,0.0,0.0,0.0
22/11/2022,00:15:57,0.000,0.0,0.0,0.0
22/11/2022,00:16:57,0.000,0.0,0.0,0.0
22/11/2022,00:17:57,0.001,0.0,0.0,0.0
22/11/2022,00:18:57,0.000,0.0,0.0,0.0
22/11/2022,00:19:57,0.001,0.0,0.0,0.0
22/11/2022,00:20:56,0.000,0.0,0.0,0.0
22/11/2022,00:21:56,0.000,0.0,0.0,0.0
22/11/2022,00:22:56,0.000,0.0,0.0,0.0
22/11/2022,00:23:56,0.000,0.0,0.0,0.0
22/11/2022,00:24:57,0.001,0.0,0.0,0.0
22/11/2022,00:25:56,0.000,0.0,0.0,0.0
22/11/2022,00:26:57,0.001,0.0,0.0,0.0
22/11/2022,00:27:56,0.000,0.0,0.0,0.0
22/11/2022,00:28:57,0.000,0.0,0.0,0.0
22/11/2022,00:29:56,0.000,0.0,0.0,0.0
22/11/2022,00:30:57,0.000,0.0,0.0,0.0
22/11/2022,00:31:56,0.000,0.0,0.0,0.0
22/11/2022,00:32:57,0.000,0.0,0.0,0.0
22/11/2022,00:33:56,0.000,0.0,0.0,0.0
22/11/2022,00:34:56,0.000,0.0,0.0,0.0
22/11/2022,00:35:57,0.000,0.0,0.0,0.0
22/11/2022,00:36:56,0.001,0.0,0.0,0.0
22/11/2022,00:37:56,0.001,0.0,0.0,0.0
22/11/2022,00:38:57,-0.001,0.0,0.0,0.0
22/11/2022,00:39:57,0.000,0.0,0.0,0.0
22/11/2022,00:40:56,0.000,0.0,0.0,0.0
22/11/2022,00:41:56,0.000,0.0,0.0,0.0
22/11/2022,00:42:57,0.000,0.0,0.0,0.0
22/11/2022,00:43:56,-0.000,0.0,0.0,0.0
22/11/2022,00:44:56,0.000,0.0,0.0,0.0
22/11/2022,00:45:57,0.000,0.0,0.0,0.0
22/11/2022,00:46:56,0.000,0.0,0.0,0.0
22/11/2022,00:47:57,0.000,0.0,0.0,0.0
22/11/2022,00:48:56,0.000,0.0,0.0,0.0
22/11/2022,00:49:57,0.000,0.0,0.0,0.0
22/11/2022,00:50:56,0.000,0.0,0.0,0.0
22/11/2022,00:51:57,0.000,0.0,0.0,0.0
22/11/2022,00:52:56,0.001,0.0,0.0,0.0
22/11/2022,00:53:57,0.000,0.0,0.0,0.0
22/11/2022,00:54:57,0.000,0.0,0.0,0.0
22/11/2022,00:55:56,0.000,0.0,0.0,0.0
22/11/2022,00:56:56,0.000,0.0,0.0,0.0
22/11/2022,00:57:57,0.000,0.0,0.0,0.0
22/11/2022,00:58:57,0.000,0.0,0.0,0.0
22/11/2022,00:59:57,0.000,0.0,0.0,0.0
22/11/2022,01:00:57,0.000,0.0,0.0,0.0
22/11/2022,01:01:57,0.000,0.0,0.0,0.0
22/11/2022,01:02:56,0.000,0.0,0.0,0.0
22/11/2022,01:03:56,0.000,0.0,0.0,0.0
22/11/2022,01:04:57,0.000,0.0,0.0,0.0
22/11/2022,01:05:56,0.000,0.0,0.0,0.0
22/11/2022,01:06:57,0.000,0.0,0.0,0.0
22/11/2022,01:07:57,0.000,0.0,0.0,0.0
22/11/2022,01:08:57,0.000,0.0,0.0,0.0
22/11/2022,01:09:56,0.000,0.0,0.0,0.0
22/11/2022,01:10:57,0.000,0.0,0.0,0.0
22/11/2022,01:11:57,0.000,0.0,0.0,0.0
22/11/2022,01:12:56,0.000,0.0,0.0,0.0
22/11/2022,01:13:57,0.000,0.0,0.0,0.0
22/11/2022,01:14:57,0.000,0.0,0.0,0.0
22/11/2022,01:15:57,0.000,0.0,0.0,0.0
22/11/2022,01:16:56,0.000,0.0,0.0,0.0
22/11/2022,01:17:57,0.000,0.0,0.0,0.0
22/11/2022,01:18:57,0.000,0.0,0.0,0.0
22/11/2022,01:19:56,0.000,0.0,0.0,0.0
22/11/2022,01:20:57,0.000,0.0,0.0,0.0
22/11/2022,01:21:56,0.000,0.0,0.0,0.0
22/11/2022,01:22:56,0.000,0.0,0.0,0.0
22/11/2022,01:23:57,0.000,0.0,0.0,0.0
22/11/2022,01:24:57,0.000,0.0,0.0,0.0
22/11/2022,01:25:56,0.000,0.0,0.0,0.0
22/11/2022,01:26:56,-0.000,0.0,0.0,0.0
22/11/2022,01:27:57,0.000,0.0,0.0,0.0
22/11/2022,01:28:56,0.000,0.0,0.0,0.0
22/11/2022,01:29:56,0.000,0.0,0.0,0.0
22/11/2022,01:30:57,0.000,0.0,0.0,0.0
22/11/2022,01:31:56,0.000,0.0,0.0,0.0
22/11/2022,01:32:56,-0.000,0.0,0.0,0.0
22/11/2022,01:33:56,0.000,0.0,0.0,0.0
22/11/2022,01:34:57,0.000,0.0,0.0,0.0
22/11/2022,01:35:57,0.000,0.0,0.0,0.0
22/11/2022,01:36:57,0.000,0.0,0.0,0.0
22/11/2022,01:37:57,-0.000,0.0,0.0,0.0
22/11/2022,01:38:57,0.000,0.0,0.0,0.0
22/11/2022,01:39:57,0.000,0.0,0.0,0.0
22/11/2022,01:40:56,-0.000,0.0,0.0,0.0
22/11/2022,01:41:57,-0.000,0.0,0.0,0.0
22/11/2022,01:42:56,0.000,0.0,0.0,0.0
22/11/2022,01:43:56,0.000,0.0,0.0,0.0
22/11/2022,01:44:57,-0.000,0.0,0.0,0.0
22/11/2022,01:45:57,0.000,0.0,0.0,0.0
22/11/2022,01:46:56,-0.000,0.0,0.0,0.0
22/11/2022,01:47:56,-0.000,0.0,0.0,0.0
22/11/2022,01:48:57,0.000,0.0,0.0,0.0
22/11/2022,01:49:57,-0.000,0.0,0.0,0.0
22/11/2022,01:50:56,-0.000,0.0,0.0,0.0
22/11/2022,01:51:56,0.000,0.0,0.0,0.0
22/11/2022,01:52:57,0.000,0.0,0.0,0.0
22/11/2022,01:53:57,0.000,0.0,0.0,0.0
22/11/2022,01:54:57,-0.000,0.0,0.0,0.0
22/11/2022,01:55:56,0.000,0.0,0.0,0.0
22/11/2022,01:56:57,-0.000,0.0,0.0,0.0
22/11/2022,01:57:56,0.000,0.0,0.0,0.0
22/11/2022,01:58:56,-0.000,0.0,0.0,0.0
22/11/2022,01:59:57,0.000,0.0,0.0,0.0
22/11/2022,02:00:57,0.000,0.0,0.0,0.0
22/11/2022,02:01:57,0.001,0.0,0.0,0.0
22/11/2022,02:02:57,0.000,0.0,0.0,0.0
22/11/2022,02:03:57,-0.000,0.0,0.0,0.0
22/11/2022,02:04:57,0.000,0.0,0.0,0.0
22/11/2022,02:05:56,-0.000,0.0,0.0,0.0
22/11/2022,02:06:56,-0.000,0.0,0.0,0.0
22/11/2022,02:07:56,-0.000,0.0,0.0,0.0
22/11/2022,02:08:56,-0.000,0.0,0.0,0.0
22/11/2022,02:09:57,-0.000,0.0,0.0,0.0
22/11/2022,02:10:56,-0.000,0.0,0.0,0.0
22/11/2022,02:11:56,-0.000,0.0,0.0,0.0
22/11/2022,02:12:57,-0.000,0.0,0.0,0.0
22/11/2022,02:13:57,-0.000,0.0,0.0,0.0
22/11/2022,02:14:56,-0.000,0.0,0.0,0.0
22/11/2022,02:15:57,0.000,0.0,0.0,0.0
22/11/2022,02:16:56,0.000,0.0,0.0,0.0
22/11/2022,02:17:57,-0.000,0.0,0.0,0.0
22/11/2022,02:18:57,0.000,0.0,0.0,0.0
22/11/2022,02:19:56,-0.000,0.0,0.0,0.0
22/11/2022,02:20:57,0.000,0.0,0.0,0.0
22/11/2022,02:21:56,-0.000,0.0,0.0,0.0
22/11/2022,02:22:57,0.000,0.0,0.0,0.0
22/11/2022,02:23:57,-0.000,0.0,0.0,0.0
22/11/2022,02:24:56,-0.000,0.0,0.0,0.0
22/11/2022,02:25:57,0.000,0.0,0.0,0.0
22/11/2022,02:26:57,0.000,0.0,0.0,0.0
22/11/2022,02:27:57,-0.000,0.0,0.0,0.0
22/11/2022,02:28:56,0.000,0.0,0.0,0.0
22/11/2022,02:29:57,-0.000,0.0,0.0,0.0
22/11/2022,02:30:56,0.000,0.0,0.0,0.0
22/11/2022,02:31:57,0.000,0.0,0.0,0.0
22/11/2022,02:32:57,-0.000,0.0,0.0,0.0
22/11/2022,02:33:57,0.000,0.0,0.0,0.0
22/11/2022,02:34:57,-0.000,0.0,0.0,0.0
22/11/2022,02:35:56,0.000,0.0,0.0,0.0
22/11/2022,02:36:57,0.000,0.0,0.0,0.0
22/11/2022,02:37:57,0.000,0.0,0.0,0.0
22/11/2022,02:38:56,0.000,0.0,0.0,0.0
22/11/2022,02:39:57,0.000,0.0,0.0,0.0
22/11/2022,02:40:57,-0.000,0.0,0.0,0.0
22/11/2022,02:41:57,-0.000,0.0,0.0,0.0
22/11/2022,02:42:57,-0.000,0.0,0.0,0.0
22/11/2022,02:43:57,0.000,0.0,0.0,0.0
22/11/2022,02:44:56,0.000,0.0,0.0,0.0
22/11/2022,02:45:56,0.000,0.0,0.0,0.0
22/11/2022,02:46:57,0.000,0.0,0.0,0.0
22/11/2022,02:47:57,0.000,0.0,0.0,0.0
22/11/2022,02:48:56,0.000,0.0,0.0,0.0
22/11/2022,02:49:57,0.000,0.0,0.0,0.0
22/11/2022,02:50:57,-0.000,0.0,0.0,0.0
22/11/2022,02:51:57,0.000,0.0,0.0,0.0
22/11/2022,02:52:57,0.000,0.0,0.0,0.0
22/11/2022,02:53:56,0.000,0.0,0.0,0.0
22/11/2022,02:54:57,0.000,0.0,0.0,0.0
22/11/2022,02:55:57,0.000,0.0,0.0,0.0
22/11/2022,02:56:56,0.000,0.0,0.0,0.0
22/11/2022,02:58:18,0.000,0.0,0.0,0.0
22/11/2022,02:58:57,0.000,0.0,0.0,0.0
22/11/2022,02:59:57,0.000,0.0,0.0,0.0
22/11/2022,03:00:57,0.000,0.0,0.0,0.0
22/11/2022,03:01:56,0.000,0.0,0.0,0.0
22/11/2022,03:02:56,0.000,0.0,0.0,0.0
22/11/2022,03:03:57,0.000,0.0,0.0,0.0
22/11/2022,03:04:57,0.000,0.0,0.0,0.0
22/11/2022,03:05:56,0.000,0.0,0.0,0.0
22/11/2022,03:06:57,0.000,0.0,0.0,0.0
22/11/2022,03:07:56,0.000,0.0,0.0,0.0
22/11/2022,03:08:57,0.001,0.0,0.0,0.0
22/11/2022,03:09:57,0.000,0.0,0.0,0.0
22/11/2022,03:10:57,0.000,0.0,0.0,0.0
22/11/2022,03:11:57,0.000,0.0,0.0,0.0
22/11/2022,03:12:57,0.000,0.0,0.0,0.0
22/11/2022,03:13:57,0.000,0.0,0.0,0.0
22/11/2022,03:14:57,0.000,0.0,0.0,0.0
22/11/2022,03:15:57,0.000,0.0,0.0,0.0
22/11/2022,03:16:56,0.000,0.0,0.0,0.0
22/11/2022,03:17:57,0.000,0.0,0.0,0.0
22/11/2022,03:18:57,0.000,0.0,0.0,0.0
22/11/2022,03:19:57,0.000,0.0,0.0,0.0
22/11/2022,03:20:57,0.000,0.0,0.0,0.0
22/11/2022,03:21:57,0.000,0.0,0.0,0.0
22/11/2022,03:22:57,0.000,0.0,0.0,0.0
22/11/2022,03:23:56,0.000,0.0,0.0,0.0
22/11/2022,03:24:57,0.000,0.0,0.0,0.0
22/11/2022,03:25:57,0.001,0.0,0.0,0.0
22/11/2022,03:26:56,0.000,0.0,0.0,0.0
22/11/2022,03:27:57,0.000,0.0,0.0,0.0
22/11/2022,03:28:57,0.000,0.0,0.0,0.0
22/11/2022,03:29:57,0.000,0.0,0.0,0.0
22/11/2022,03:30:57,0.000,0.0,0.0,0.0
22/11/2022,03:31:57,0.000,0.0,0.0,0.0
22/11/2022,03:32:57,0.000,0.0,0.0,0.0
22/11/2022,03:33:57,0.000,0.0,0.0,0.0
22/11/2022,03:34:57,-0.000,0.0,0.0,0.0
22/11/2022,03:35:57,0.000,0.0,0.0,0.0
22/11/2022,03:36:56,0.000,0.0,0.0,0.0
22/11/2022,03:37:57,0.000,0.0,0.0,0.0
22/11/2022,03:38:57,0.000,0.0,0.0,0.0
22/11/2022,03:39:57,0.000,0.0,0.0,0.0
22/11/2022,03:40:57,0.000,0.0,0.0,0.0
22/11/2022,03:41:58,0.000,0.0,0.0,0.0
22/11/2022,03:42:56,0.000,0.0,0.0,0.0
22/11/2022,03:43:56,0.000,0.0,0.0,0.0
22/11/2022,03:44:58,0.000,0.0,0.0,0.0
22/11/2022,03:45:57,0.000,0.0,0.0,0.0
22/11/2022,03:46:57,0.000,0.0,0.0,0.0
22/11/2022,03:47:56,0.000,0.0,0.0,0.0
22/11/2022,03:48:56,0.000,0.0,0.0,0.0
22/11/2022,03:49:57,0.000,0.0,0.0,0.0
22/11/2022,03:50:57,0.001,0.0,0.0,0.0
22/11/2022,03:51:57,0.000,0.0,0.0,0.0
22/11/2022,03:52:57,0.000,0.0,0.0,0.0
22/11/2022,03:53:57,0.000,0.0,0.0,0.0
22/11/2022,03:54:57,0.000,0.0,0.0,0.0
22/11/2022,03:55:57,0.000,0.0,0.0,0.0
22/11/2022,03:56:57,0.000,0.0,0.0,0.0
22/11/2022,03:57:57,0.000,0.0,0.0,0.0
22/11/2022,03:58:56,0.000,0.0,0.0,0.0
22/11/2022,03:59:56,0.000,0.0,0.0,0.0
22/11/2022,04:00:57,0.000,0.0,0.0,0.0
22/11/2022,04:01:57,0.000,0.0,0.0,0.0
22/11/2022,04:02:57,0.000,0.0,0.0,0.0
22/11/2022,04:03:56,0.000,0.0,0.0,0.0
22/11/2022,04:04:57,0.000,0.0,0.0,0.0
22/11/2022,04:05:57,0.000,0.0,0.0,0.0
22/11/2022,04:06:57,0.000,0.0,0.0,0.0
22/11/2022,04:07:57,0.000,0.0,0.0,0.0
22/11/2022,04:08:59,0.000,0.0,0.0,0.0
22/11/2022,04:09:57,0.000,0.0,0.0,0.0
22/11/2022,04:10:56,0.000,0.0,0.0,0.0
22/11/2022,04:11:57,0.000,0.0,0.0,0.0
22/11/2022,04:12:57,0.000,0.0,0.0,0.0
22/11/2022,04:13:57,0.000,0.0,0.0,0.0
22/11/2022,04:14:57,0.000,0.0,0.0,0.0
22/11/2022,04:15:57,0.000,0.0,0.0,0.0
22/11/2022,04:16:57,0.000,0.0,0.0,0.0
22/11/2022,04:17:57,0.000,0.0,0.0,0.0
22/11/2022,04:18:57,0.000,0.0,0.0,0.0
22/11/2022,04:19:57,0.000,0.0,0.0,0.0
22/11/2022,04:20:57,0.000,0.0,0.0,0.0
22/11/2022,04:21:57,0.000,0.0,0.0,0.0
22/11/2022,04:22:57,0.000,0.0,0.0,0.0
22/11/2022,04:23:57,0.000,0.0,0.0,0.0
22/11/2022,04:24:57,0.000,0.0,0.0,0.0
22/11/2022,04:25:57,0.000,0.0,0.0,0.0
22/11/2022,04:26:57,0.000,0.0,0.0,0.0
22/11/2022,04:27:57,0.000,0.0,0.0,0.0
22/11/2022,04:28:57,0.000,0.0,0.0,0.0
22/11/2022,04:29:57,0.000,0.0,0.0,0.0
22/11/2022,04:30:57,0.000,0.0,0.0,0.0
22/11/2022,04:31:57,0.000,0.0,0.0,0.0
22/11/2022,04:32:56,0.000,0.0,0.0,0.0
22/11/2022,04:33:57,0.000,0.0,0.0,0.0
22/11/2022,04:34:57,0.000,0.0,0.0,0.0
22/11/2022,04:35:57,0.000,0.0,0.0,0.0
22/11/2022,04:36:56,0.000,0.0,0.0,0.0
22/11/2022,04:37:57,0.000,0.0,0.0,0.0
22/11/2022,04:38:57,0.000,0.0,0.0,0.0
22/11/2022,04:39:57,0.000,0.0,0.0,0.0
22/11/2022,04:40:57,0.000,0.0,0.0,0.0
22/11/2022,04:41:57,0.000,0.0,0.0,0.0
22/11/2022,04:42:57,0.000,0.0,0.0,0.0
22/11/2022,04:43:57,0.000,0.0,0.0,0.0
22/11/2022,04:44:57,0.000,0.0,0.0,0.0
22/11/2022,04:45:57,0.001,0.0,0.0,0.0
22/11/2022,04:46:57,0.000,0.0,0.0,0.0
22/11/2022,04:47:57,0.000,0.0,0.0,0.0
22/11/2022,04:48:57,0.000,0.0,0.0,0.0
22/11/2022,04:49:57,0.000,0.0,0.0,0.0
22/11/2022,04:50:57,0.000,0.0,0.0,0.0
22/11/2022,04:51:57,0.000,0.0,0.0,0.0
22/11/2022,04:52:57,0.000,0.0,0.0,0.0
22/11/2022,04:53:57,0.000,0.0,0.0,0.0
22/11/2022,04:54:57,0.000,0.0,0.0,0.0
22/11/2022,04:55:56,0.000,0.0,0.0,0.0
22/11/2022,04:57:19,0.000,0.0,0.0,0.0
22/11/2022,04:57:57,-0.001,0.0,0.0,0.0
22/11/2022,04:58:56,0.000,0.0,0.0,0.0
22/11/2022,04:59:57,0.000,0.0,0.0,0.0
22/11/2022,05:00:57,0.000,0.0,0.0,0.0
22/11/2022,05:01:57,0.000,0.0,0.0,0.0
22/11/2022,05:02:57,0.000,0.0,0.0,0.0
22/11/2022,05:03:57,0.000,0.0,0.0,0.0
22/11/2022,05:04:56,0.000,0.0,0.0,0.0
22/11/2022,05:05:57,0.000,0.0,0.0,0.0
22/11/2022,05:06:56,0.000,0.0,0.0,0.0
22/11/2022,05:07:57,0.000,0.0,0.0,0.0
22/11/2022,05:08:58,0.000,0.0,0.0,0.0
22/11/2022,05:09:58,0.000,0.0,0.0,0.0
22/11/2022,05:10:57,-0.000,0.0,0.0,0.0
22/11/2022,05:11:57,0.000,0.0,0.0,0.0
22/11/2022,05:12:57,0.000,0.0,0.0,0.0
22/11/2022,05:13:57,0.000,0.0,0.0,0.0
22/11/2022,05:14:57,0.001,0.0,0.0,0.0
22/11/2022,05:15:56,0.000,0.0,0.0,0.0
22/11/2022,05:16:57,0.000,0.0,0.0,0.0
22/11/2022,05:17:57,0.000,0.0,0.0,0.0
22/11/2022,05:18:57,0.000,0.0,0.0,0.0
22/11/2022,05:19:56,0.000,0.0,0.0,0.0
22/11/2022,05:20:57,0.000,0.0,0.0,0.0
22/11/2022,05:21:57,0.000,0.0,0.0,0.0
22/11/2022,05:22:57,0.000,0.0,0.0,0.0
22/11/2022,05:23:57,0.000,0.0,0.0,0.0
22/11/2022,05:24:57,0.000,0.0,0.0,0.0
22/11/2022,05:25:57,0.000,0.0,0.0,0.0
22/11/2022,05:26:57,0.000,0.0,0.0,0.0
22/11/2022,05:27:57,0.000,0.0,0.0,0.0
22/11/2022,05:28:57,0.000,0.0,0.0,0.0
22/11/2022,05:29:57,0.000,0.0,0.0,0.0
22/11/2022,05:30:57,0.000,0.0,0.0,0.0
22/11/2022,05:31:57,0.000,0.0,0.0,0.0
22/11/2022,05:32:57,0.000,0.0,0.0,0.0
22/11/2022,05:33:57,0.000,0.0,0.0,0.0
22/11/2022,05:34:57,0.000,0.0,0.0,0.0
22/11/2022,05:35:57,0.000,0.0,0.0,0.0
22/11/2022,05:36:57,0.000,0.0,0.0,0.0
22/11/2022,05:37:57,0.000,0.0,0.0,0.0
22/11/2022,05:38:57,0.000,0.0,0.0,0.0
22/11/2022,05:39:57,0.000,0.0,0.0,0.0
22/11/2022,05:40:57,0.000,0.0,0.0,0.0
22/11/2022,05:41:57,0.000,0.0,0.0,0.0
22/11/2022,05:42:57,0.000,0.0,0.0,0.0
22/11/2022,05:43:57,0.000,0.0,0.0,0.0
22/11/2022,05:44:57,0.000,0.0,0.0,0.0
22/11/2022,05:45:57,0.000,0.0,0.0,0.0
22/11/2022,05:46:57,0.000,0.0,0.0,0.0
22/11/2022,05:47:57,0.000,0.0,0.0,0.0
22/11/2022,05:48:57,0.000,0.0,0.0,0.0
22/11/2022,05:49:57,0.000,0.0,0.0,0.0
22/11/2022,05:50:57,0.000,0.0,0.0,0.0
22/11/2022,05:51:57,0.000,0.0,0.0,0.0
22/11/2022,05:52:57,0.000,0.0,0.0,0.0
22/11/2022,05:53:57,0.000,0.0,0.0,0.0
22/11/2022,05:54:57,0.000,0.0,0.0,0.0
22/11/2022,05:55:57,0.000,0.0,0.0,0.0
22/11/2022,05:56:57,0.000,0.0,0.0,0.0
22/11/2022,05:57:57,0.000,0.0,0.0,0.0
22/11/2022,05:58:57,0.000,0.0,0.0,0.0
22/11/2022,05:59:57,0.000,0.0,0.0,0.0
22/11/2022,06:00:57,0.000,0.0,0.0,0.0
22/11/2022,06:01:57,0.000,0.0,0.0,0.0
22/11/2022,06:02:57,0.000,0.0,0.0,0.0
22/11/2022,06:03:57,0.000,0.0,0.0,0.0
22/11/2022,06:04:57,0.000,0.0,0.0,0.0
22/11/2022,06:05:57,0.000,0.0,0.0,0.0
22/11/2022,06:06:57,0.000,0.0,0.0,0.0
22/11/2022,06:07:57,0.000,0.0,0.0,0.0
22/11/2022,06:08:57,0.000,0.0,0.0,0.0
22/11/2022,06:09:57,0.000,0.0,0.0,0.0
22/11/2022,06:10:57,0.000,0.0,0.0,0.0
22/11/2022,06:11:57,0.000,0.0,0.0,0.0
22/11/2022,06:12:57,0.000,0.0,0.0,0.0
22/11/2022,06:13:57,0.001,0.0,0.0,0.0
22/11/2022,06:14:58,0.000,0.0,0.0,0.0
22/11/2022,06:15:57,0.000,0.0,0.0,0.0
22/11/2022,06:16:57,0.000,0.0,0.0,0.0
22/11/2022,06:17:57,0.000,0.0,0.0,0.0
22/11/2022,06:18:57,0.000,0.0,0.0,0.0
22/11/2022,06:19:57,0.000,0.0,0.0,0.0
22/11/2022,06:20:57,0.000,0.0,0.0,0.0
22/11/2022,06:21:57,0.000,0.0,0.0,0.0
22/11/2022,06:22:57,0.001,0.0,0.0,0.0
22/11/2022,06:23:57,0.000,0.0,0.0,0.0
22/11/2022,06:24:58,0.000,0.0,0.0,0.0
22/11/2022,06:25:57,-0.001,0.0,0.0,0.0
22/11/2022,06:26:57,0.000,0.0,0.0,0.0
22/11/2022,06:27:57,0.000,0.0,0.0,0.0
22/11/2022,06:28:57,0.000,0.0,0.0,0.0
22/11/2022,06:29:57,0.000,0.0,0.0,0.0
22/11/2022,06:30:57,0.000,0.0,0.0,0.0
22/11/2022,06:31:57,0.000,0.0,0.0,0.0
22/11/2022,06:32:57,0.000,0.0,0.0,0.0
22/11/2022,06:33:58,0.000,0.0,0.0,0.0
22/11/2022,06:34:57,0.001,0.0,0.0,0.0
22/11/2022,06:35:57,0.000,0.0,0.0,0.0
22/11/2022,06:36:57,0.000,0.0,0.0,0.0
22/11/2022,06:37:57,0.001,0.0,0.0,0.0
22/11/2022,06:38:57,0.000,0.0,0.0,0.0
22/11/2022,06:39:57,-0.001,0.0,0.0,0.0
22/11/2022,06:40:57,0.000,0.0,0.0,0.0
22/11/2022,06:41:57,0.001,0.0,0.0,0.0
22/11/2022,06:42:57,0.000,0.0,0.0,0.0
22/11/2022,06:43:57,0.001,0.0,0.0,0.0
22/11/2022,06:44:57,0.000,0.0,0.0,0.0
22/11/2022,06:45:58,0.000,0.0,0.0,0.0
22/11/2022,06:46:57,0.000,0.0,0.0,0.0
22/11/2022,06:47:57,0.001,0.0,0.0,0.0
22/11/2022,06:48:57,0.000,0.0,0.0,0.0
22/11/2022,06:49:57,0.000,0.0,0.0,0.0
22/11/2022,06:50:57,0.000,0.0,0.0,0.0
22/11/2022,06:51:58,0.000,0.0,0.0,0.0
22/11/2022,06:52:57,0.000,0.0,0.0,0.0
22/11/2022,06:53:57,0.000,0.0,0.0,0.0
22/11/2022,06:54:57,0.000,0.0,0.0,0.0
22/11/2022,06:55:57,0.000,0.0,0.0,0.0
22/11/2022,06:56:57,0.000,0.0,0.0,0.0
22/11/2022,06:57:57,0.000,0.0,0.0,0.0
22/11/2022,06:58:57,0.000,0.0,0.0,0.0
22/11/2022,06:59:57,0.000,0.0,0.0,0.0
22/11/2022,07:00:58,0.000,0.0,0.0,0.0
22/11/2022,07:01:57,0.000,0.0,0.0,0.0
22/11/2022,07:02:57,0.000,0.0,0.0,0.0
22/11/2022,07:03:57,0.000,0.0,0.0,0.0
22/11/2022,07:04:57,0.000,0.0,0.0,0.0
22/11/2022,07:05:57,0.000,0.0,0.0,0.0
22/11/2022,07:06:57,0.000,0.0,0.0,0.0
22/11/2022,07:07:57,0.001,0.0,0.0,0.0
22/11/2022,07:08:57,0.000,0.0,0.0,0.0
22/11/2022,07:09:58,0.000,0.0,0.0,0.0
22/11/2022,07:10:57,0.001,0.0,0.0,0.0
22/11/2022,07:11:57,0.001,0.0,0.0,0.0
22/11/2022,07:12:57,0.001,0.0,0.0,0.0
22/11/2022,07:13:59,0.001,0.0,0.0,0.0
22/11/2022,07:14:57,0.001,0.0,0.0,0.0
22/11/2022,07:15:57,0.000,0.0,0.0,0.0
22/11/2022,07:16:57,0.001,0.0,0.0,0.0
22/11/2022,07:17:57,0.001,0.0,0.0,0.0
22/11/2022,07:18:58,0.001,0.0,0.0,0.0
22/11/2022,07:19:57,0.001,0.0,0.0,0.0
22/11/2022,07:20:57,0.001,0.0,0.0,0.0
22/11/2022,07:21:57,0.001,0.0,0.0,0.0
22/11/2022,07:22:57,0.000,0.0,0.0,0.0
22/11/2022,07:23:57,0.002,0.0,0.0,0.0
22/11/2022,07:24:57,0.000,0.0,0.0,0.0
22/11/2022,07:25:57,0.001,0.0,0.0,0.0
22/11/2022,07:26:57,0.001,0.0,0.0,0.0
22/11/2022,07:27:57,0.000,0.0,0.0,0.0
22/11/2022,07:28:57,0.002,0.0,0.0,0.0
22/11/2022,07:29:57,0.000,0.0,0.0,0.0
22/11/2022,07:30:57,0.001,0.0,0.0,0.0
22/11/2022,07:31:57,0.002,0.0,0.0,0.0
22/11/2022,07:32:57,0.002,0.0,0.0,0.0
22/11/2022,07:33:57,0.003,0.0,0.0,0.0
22/11/2022,07:34:57,0.002,0.0,0.0,0.0
22/11/2022,07:35:57,0.003,0.0,0.0,0.0
22/11/2022,07:36:57,0.002,0.0,0.0,0.0
22/11/2022,07:37:58,0.003,0.0,0.0,0.0
22/11/2022,07:38:57,0.002,0.0,0.0,0.0
22/11/2022,07:39:57,0.003,0.0,0.0,0.0
22/11/2022,07:40:57,0.003,0.0,0.0,0.0
22/11/2022,07:41:57,0.003,0.0,0.0,0.0
22/11/2022,07:42:57,0.003,0.0,0.0,0.0
22/11/2022,07:43:58,0.004,0.0,0.0,0.0
22/11/2022,07:44:57,0.004,0.0,0.0,0.0
22/11/2022,07:45:58,0.004,0.0,0.0,0.0
22/11/2022,07:46:57,0.004,0.0,0.0,0.0
22/11/2022,07:47:57,0.004,0.0,0.0,0.0
22/11/2022,07:48:57,0.005,0.0,0.0,0.0
22/11/2022,07:49:57,0.005,0.0,0.0,0.0
22/11/2022,07:50:57,0.005,0.0,0.0,0.0
22/11/2022,07:51:58,0.005,0.0,0.0,0.0
22/11/2022,07:52:57,0.005,0.0,0.0,0.0
22/11/2022,07:53:57,0.006,0.0,0.0,0.0
22/11/2022,07:54:57,0.007,0.0,0.0,0.0
22/11/2022,07:55:57,0.007,0.0,0.0,0.0
22/11/2022,07:56:57,0.007,0.0,0.0,0.0
22/11/2022,07:57:57,0.007,0.0,0.001,0.001
22/11/2022,07:58:58,0.008,0.0,0.001,0.0
22/11/2022,07:59:57,0.008,0.0,0.001,0.0
22/11/2022,08:00:57,0.008,0.0,0.001,0.0
22/11/2022,08:01:58,0.009,0.0,0.001,0.0
22/11/2022,08:02:57,0.008,0.0,0.001,0.0
22/11/2022,08:03:57,0.009,0.0,0.001,0.0
22/11/2022,08:04:57,0.010,0.0,0.002,0.001
22/11/2022,08:05:57,0.009,0.0,0.002,0.0
22/11/2022,08:06:57,0.010,0.0,0.002,0.0
22/11/2022,08:07:57,0.011,0.0,0.002,0.0
22/11/2022,08:08:57,0.011,0.0,0.002,0.0
22/11/2022,08:09:57,0.012,0.0,0.002,0.0
22/11/2022,08:10:57,0.012,0.0,0.003,0.001
22/11/2022,08:11:57,0.013,0.0,0.003,0.0
22/11/2022,08:12:57,0.013,0.0,0.003,0.0
22/11/2022,08:13:57,0.014,0.0,0.003,0.0
22/11/2022,08:14:58,0.014,0.0,0.004,0.001
22/11/2022,08:15:57,0.013,0.0,0.004,0.0
22/11/2022,08:16:57,0.016,0.0,0.004,0.0
22/11/2022,08:17:58,0.016,0.0,0.004,0.0
22/11/2022,08:18:57,0.016,0.0,0.005,0.001
22/11/2022,08:19:57,0.016,0.0,0.005,0.0
22/11/2022,08:20:57,0.017,0.0,0.005,0.0
22/11/2022,08:21:58,0.017,0.0,0.005,0.0
22/11/2022,08:22:57,0.018,0.0,0.006,0.001
22/11/2022,08:23:57,0.019,0.0,0.006,0.0
22/11/2022,08:25:00,0.019,0.0,0.006,0.0
22/11/2022,08:25:58,0.019,0.0,0.007,0.001
22/11/2022,08:26:57,0.020,0.0,0.007,0.0
22/11/2022,08:27:57,0.021,0.0,0.007,0.0
22/11/2022,08:28:57,0.021,0.0,0.008,0.001
22/11/2022,08:29:58,0.023,0.0,0.008,0.0
22/11/2022,08:30:57,0.022,0.0,0.008,0.0
22/11/2022,08:31:57,0.023,0.0,0.009,0.001
22/11/2022,08:32:57,0.023,0.0,0.009,0.0
22/11/2022,08:33:57,0.024,0.0,0.009,0.0
22/11/2022,08:34:58,0.025,0.0,0.01,0.001
22/11/2022,08:35:57,0.026,0.0,0.01,0.0
22/11/2022,08:36:57,0.026,0.0,0.011,0.001
22/11/2022,08:37:57,0.026,0.0,0.011,0.0
22/11/2022,08:38:57,0.027,0.0,0.012,0.001
22/11/2022,08:39:58,0.029,0.0,0.012,0.0
22/11/2022,08:40:57,0.029,0.0,0.013,0.001
22/11/2022,08:41:57,0.029,0.0,0.013,0.0
22/11/2022,08:42:57,0.029,0.0,0.014,0.001
22/11/2022,08:43:57,0.031,0.0,0.014,0.0
22/11/2022,08:44:57,0.031,0.0,0.015,0.001
22/11/2022,08:45:58,0.032,0.0,0.015,0.0
22/11/2022,08:46:57,0.033,0.0,0.016,0.001
22/11/2022,08:47:57,0.033,0.0,0.016,0.0
22/11/2022,08:48:57,0.034,0.0,0.017,0.001
22/11/2022,08:49:58,0.035,0.0,0.017,0.0
22/11/2022,08:50:57,0.035,0.0,0.018,0.001
22/11/2022,08:51:57,0.036,0.0,0.018,0.0
22/11/2022,08:52:57,0.037,0.0,0.019,0.001
22/11/2022,08:53:58,0.037,0.0,0.02,0.001
22/11/2022,08:54:57,0.038,0.0,0.02,0.0
22/11/2022,08:55:57,0.040,0.0,0.021,0.001
22/11/2022,08:56:57,0.039,0.0,0.022,0.001
22/11/2022,08:57:57,0.040,0.0,0.022,0.0
22/11/2022,08:58:58,0.041,0.0,0.023,0.001
22/11/2022,08:59:57,0.042,0.0,0.024,0.001
22/11/2022,09:00:58,0.043,0.0,0.024,0.0
22/11/2022,09:01:57,0.043,0.0,0.025,0.001
22/11/2022,09:02:58,0.044,0.0,0.026,0.001
22/11/2022,09:03:56,0.045,0.0,0.026,0.0
22/11/2022,09:05:22,0.046,0.0,0.028,0.002
22/11/2022,09:05:59,0.047,0.0,0.028,0.0
22/11/2022,09:06:57,0.047,0.0,0.029,0.001
22/11/2022,09:07:57,0.048,0.0,0.03,0.001
22/11/2022,09:08:58,0.049,0.0,0.03,0.0
22/11/2022,09:09:57,0.050,0.0,0.031,0.001
22/11/2022,09:10:57,0.052,0.0,0.032,0.001
22/11/2022,09:11:58,0.051,0.0,0.033,0.001
22/11/2022,09:12:57,0.052,0.0,0.034,0.001
22/11/2022,09:13:58,0.053,0.0,0.035,0.001
22/11/2022,09:14:57,0.055,0.0,0.036,0.001
22/11/2022,09:15:57,0.055,0.0,0.036,0.0
22/11/2022,09:16:58,0.056,0.0,0.037,0.001
22/11/2022,09:17:57,0.057,0.0,0.038,0.001
22/11/2022,09:18:57,0.058,0.0,0.039,0.001
22/11/2022,09:19:57,0.058,0.0,0.04,0.001
22/11/2022,09:20:57,0.059,0.0,0.041,0.001
22/11/2022,09:21:57,0.059,0.0,0.042,0.001
22/11/2022,09:22:58,0.061,0.0,0.043,0.001
22/11/2022,09:23:57,0.062,0.0,0.044,0.001
22/11/2022,09:24:58,0.062,0.0,0.045,0.001
22/11/2022,09:25:57,0.064,0.0,0.046,0.001
22/11/2022,09:26:57,0.065,0.0,0.047,0.001
22/11/2022,09:27:58,0.066,0.0,0.049,0.002
22/11/2022,09:28:57,0.067,0.0,0.05,0.001
22/11/2022,09:29:58,0.068,0.0,0.051,0.001
22/11/2022,09:30:58,0.069,0.0,0.052,0.001
22/11/2022,09:31:57,0.069,0.0,0.053,0.001
22/11/2022,09:32:57,0.070,0.0,0.054,0.001
22/11/2022,09:33:58,0.070,0.0,0.055,0.001
22/11/2022,09:34:57,0.072,0.0,0.057,0.002
22/11/2022,09:35:57,0.074,0.0,0.058,0.001
22/11/2022,09:36:57,0.075,0.0,0.059,0.001
22/11/2022,09:37:57,0.074,0.0,0.06,0.001
22/11/2022,09:38:57,0.076,0.0,0.061,0.001
22/11/2022,09:39:57,0.076,0.0,0.063,0.002
22/11/2022,09:40:58,0.078,0.0,0.064,0.001
22/11/2022,09:41:57,0.079,0.0,0.065,0.001
22/11/2022,09:42:58,0.080,0.0,0.067,0.002
22/11/2022,09:43:57,0.082,0.0,0.068,0.001
22/11/2022,09:44:57,0.083,0.0,0.069,0.001
22/11/2022,09:45:57,0.084,0.0,0.071,0.002
22/11/2022,09:46:57,0.085,0.0,0.072,0.001
22/11/2022,09:47:58,0.087,0.0,0.074,0.002
22/11/2022,09:48:57,0.088,0.0,0.075,0.001
22/11/2022,09:49:57,0.088,0.0,0.077,0.002
22/11/2022,09:50:58,0.090,0.0,0.078,0.001
22/11/2022,09:51:57,0.091,0.0,0.079,0.001
22/11/2022,09:52:57,0.093,0.0,0.081,0.002
22/11/2022,09:53:58,0.093,0.0,0.083,0.002
22/11/2022,09:54:57,0.094,0.0,0.084,0.001
22/11/2022,09:55:57,0.096,0.0,0.086,0.002
22/11/2022,09:56:57,0.097,0.0,0.087,0.001
22/11/2022,09:58:00,0.098,0.0,0.089,0.002
22/11/2022,09:58:57,0.099,0.0,0.091,0.002
22/11/2022,09:59:57,0.101,0.0,0.092,0.001
22/11/2022,10:00:58,0.103,0.0,0.094,0.002
22/11/2022,10:01:57,0.103,0.0,0.096,0.002
22/11/2022,10:02:57,0.104,0.0,0.097,0.001
22/11/2022,10:03:58,0.105,0.0,0.099,0.002
22/11/2022,10:04:57,0.107,0.0,0.101,0.002
22/11/2022,10:05:57,0.107,0.0,0.103,0.002
22/11/2022,10:06:58,0.110,0.0,0.105,0.002
22/11/2022,10:07:58,0.110,0.0,0.106,0.001
22/11/2022,10:08:57,0.111,0.0,0.108,0.002
22/11/2022,10:09:59,0.111,0.0,0.11,0.002
22/11/2022,10:10:57,0.111,0.0,0.112,0.002
22/11/2022,10:11:57,0.111,0.0,0.114,0.002
22/11/2022,10:12:58,0.113,0.0,0.116,0.002
22/11/2022,10:13:57,0.113,0.0,0.118,0.002
22/11/2022,10:14:57,0.114,0.0,0.119,0.001
22/11/2022,10:15:58,0.116,0.0,0.121,0.002
22/11/2022,10:16:57,0.117,0.0,0.123,0.002
22/11/2022,10:17:57,0.118,0.0,0.125,0.002